Location: Unspecified
(33.2407°S, 0.0000°E)
Time: 16:04:16
(UTC+00:00)

OTV 5 (USA 277) - Visible Passes

Search period start: 20 May 2019 00:00
Search period end: 30 May 2019 00:00
Orbit: 310 x 325 km, 54.5° (Epoch: 08 May)

Date Brightness Start Highest point End Pass type
(mag) Time Alt. Az. Time Alt. Az. Time Alt. Az.
20 May ? 05:19:01 40° SSE 05:19:26 44° SE 05:22:07 10° ENE visible
21 May ? 05:33:51 42° WNW 05:34:08 43° NW 05:36:48 10° NNE visible
22 May ? 05:48:46 13° NW 05:48:46 13° NW 05:50:05 10° NNW visible
26 May ? 18:19:21 10° NNW 18:21:33 33° NE 18:21:33 33° NE visible
27 May ? 18:33:51 10° NW 18:36:20 52° WSW 18:36:20 52° WSW visible
28 May ? 18:49:24 10° W 18:51:02 17° SW 18:51:02 17° SW visible
29 May ? 17:29:02 10° NW 17:31:43 73° NE 17:34:26 10° SE visible
